This demonstration page uses our WeatherBlox Daily Observations layout. Learn more.

Left ArrowRight Arrow

39.08367, -84.50855

Hourly Observations for April 28, 2022

Temp ( °F °C ) Dew Point ( °F °C ) Humidity (%) Winds ( mph kmh ) Pressure ( in mb ) Visibility ( mi km ) Precip ( " mm )
12:53 am 00:53 Clear 48 8.9 37 2.8 66 66 NNE 3 6 30.24 1024 10 16 0.00 0.00
1:53 am 01:53 Clear 43 6.1 40 4.4 89 89 Calm 30.25 1024 10 16 0.00 0.00
2:53 am 02:53 Clear 44 6.7 40 4.4 85 85 Calm 30.26 1025 10 16 0.00 0.00
3:53 am 03:53 Mostly Clear 46 7.8 34 1.1 63 63 NE 9 15 30.26 1025 10 16 0.00 0.00
4:53 am 04:53 Mostly Cloudy 45 7.2 36 2.2 71 71 NE 13 20 30.28 1025 10 16 0.00 0.00
5:53 am 05:53 Cloudy 44 6.7 35 1.7 71 71 NE 13 20 30.29 1026 10 16 0.00 0.00
6:53 am 06:53 Cloudy 43 6.1 32 0 65 65 NE 9 15 30.31 1026 10 16 0.00 0.00
7:53 am 07:53 Mostly Cloudy 42 5.6 31 -0.6 65 65 ENE 6 9 30.32 1027 10 16 0.00 0.00
8:53 am 08:53 Mostly Cloudy 43 6.1 29 -1.7 58 58 ENE 8 13 30.33 1027 10 16 0.00 0.00
9:53 am 09:53 Mostly Cloudy 46 7.8 31 -0.6 56 56 ESE 8 13 30.33 1027 10 16 0.00 0.00
10:53 am 10:53 Sunny 50 10 33 0.6 52 52 E 8 13 30.32 1027 10 16 0.00 0.00
11:53 am 11:53 Mostly Sunny 53 11.7 34 1.1 48 48 NNE 5 7 30.32 1027 10 16 0.00 0.00
12:53 pm 12:53 Sunny 54 12.2 34 1.1 47 47 Calm 30.30 1026 10 16 0.00 0.00
1:53 pm 13:53 Mostly Sunny 60 15.6 39 3.9 46 46 NE 9 15 30.26 1025 10 16 0.00 0.00
2:53 pm 14:53 Mostly Cloudy 60 15.6 38 3.3 44 44 E 8 13 30.23 1024 10 16 0.00 0.00
3:53 pm 15:53 Cloudy 60 15.6 39 3.9 46 46 NNE 7 11 30.22 1023 10 16 0.00 0.00
4:53 pm 16:53 Mostly Cloudy 62 16.7 39 3.9 43 43 E 7 11 30.19 1022 10 16 0.00 0.00
5:53 pm 17:53 Sunny 62 16.7 40 4.4 44 44 ENE 6 9 30.18 1022 10 16 0.00 0.00
6:53 pm 18:53 Cloudy 60 15.6 41 5 50 50 ENE 9 15 30.18 1022 10 16 0.00 0.00
7:53 pm 19:53 Cloudy 59 15 40 4.4 49 49 NE 8 13 30.18 1022 10 16 0.00 0.00
8:53 pm 20:53 Cloudy 57 13.9 40 4.4 53 53 NNE 9 15 30.19 1023 10 16 0.00 0.00
9:53 pm 21:53 Mostly Cloudy 55 12.8 40 4.4 57 57 ENE 6 9 30.19 1023 10 16 0.00 0.00
10:53 pm 22:53 Cloudy 55 12.8 36 2.2 49 49 NE 7 11 30.19 1023 10 16 0.00 0.00
11:53 pm 23:53 Cloudy 54 12.2 36 2.2 51 51 ENE 7 11 30.18 1022 10 16 0.00 0.00

Powered by AerisWeather